Back to catalog

CZ-4B DEB

AliveLEO
NORAD 40532·DEBRIS·🇨🇳 China

Launched Oct 25, 2013 from Jiuquan Satellite Launch Center

Loading…

Next Passes (next 24 hours)

TLE

FreshSource: Space-Track

Epoch: Sep 13, 2026, 08:58 UTC

1 40532U 13057E   26256.37408852  .00003375  00000-0  60205-3 0  9992
2 40532  74.8688  36.2814 0181198 118.7576 243.1932 14.57102845604331

Track CZ-4B DEB in real time with AllMySat

Download on the App Store